www.pogodaiklimat.ru

Погода и климат >> Архив погоды >> Венгрия >> Шармеллек


ПОГОДА в Шармеллеке

  • Прогноз погоды в Шармеллеке
  • Монитор погоды в Шармеллеке

АРХИВ ПОГОДЫ в Шармеллеке

Время (UTC), дата Ветер
(напр.,м/с)
 
Видим.   Явления Облачность Т
(С)
Тd
(С)
f
(%)
Тe
(С)
Тes
(С)
Комфортность P
(гПа)
Po
(гПа)
Тmin
(С)
Tmax
(С)
R
(мм)
R24
(мм)
S
(см)
19 15.02 З 2 н/о н/о +1.2 +0.2 93 -2 -2 1034.6 1019.2
20 15.02 СЗ 1 н/о н/о +0.8 +0.1 95 -1 -1 1034.6 1019.1
21 15.02 СЗ 1 н/о н/о -0.1 -0.2 99 -2 -2 1034.6 1019.1
22 15.02 СЗ 1 н/о н/о -0.7 -0.8 99 -3 -3 1034.4 1018.9
23 15.02 штиль 0 н/о н/о -1.9 -2.0 99 -3 -3 1034.4 1018.8
00 16.02 штиль 0 н/о н/о -2.6 -2.7 99 -4 -4 1034.2 1018.6
01 16.02 Ю 1 н/о н/о -3.8 -3.9 99 -6 -6 1034.2 1018.5
02 16.02 штиль 0 н/о н/о -3.6 -3.7 99 -5 -5 1033.7 1018.0
03 16.02 штиль 0 н/о н/о -3.3 -3.4 99 -5 -5 1033.4 1017.7
04 16.02 штиль 0 н/о н/о -4.5 -4.6 99 -6 -6 1033.3 1017.6
05 16.02 штиль 0 н/о н/о -4.3 -4.4 99 -6 -6 1032.9 1017.2
06 16.02 штиль 0 100 м переохл. туман 4/0
[Ci sp]
-4.3 -4.4 99 -6 -6 1033.3 1017.6 -4.6
07 16.02 С 1 н/о н/о -3.0 -3.1 99 -6 -6 1033.8 1018.1
08 16.02 штиль 0 н/о н/о -0.3 -0.4 99 -2 -2 1033.6 1018.1
09 16.02 ЮВ 1 3000 м дымка {туман} 1/0
[Ci sp]
+2.4 +2.1 98 +1 +1 1033.4 1018.1
10 16.02 Ю 2 н/о н/о +6.1 +2.6 78 +4 +4 1033.1 1018.0
11 16.02 Ю 2 н/о н/о +9.2 +3.2 66 +8 +8 1032.2 1017.2
12 16.02 Ю 2 20 км {туман} 1/0
[Ci sp]
+11.0 +3.3 59 +10 +10 1031.5 1016.6
13 16.02 Ю 2 н/о н/о +12.3 +2.7 52 +12 +12 1030.9 1016.1
14 16.02 ЮЗ 1 н/о н/о +12.8 +0.9 44 +13 +13 1030.5 1015.7
15 16.02 Ю 2 н/о н/о +12.2 +1.5 48 +12 +12 1030.0 1015.2
16 16.02 Ю 3 н/о н/о +7.9 +1.5 64 +5 +5 1030.3 1015.3
17 16.02 Ю 3 н/о н/о +5.5 +0.3 69 +2 +2 1030.6 1015.5
18 16.02 Ю 2 н/о н/о +4.8 +1.3 78 +2 +2 1030.9 1015.7 +13.3
19 16.02 ЮВ 1 н/о н/о +3.8 +1.2 83 +2 +2 1030.9 1015.7
20 16.02 В 1 н/о н/о +1.2 -0.3 90 -1 -1 1031.2 1015.8
21 16.02 ЮВ 1 н/о н/о +0.3 -0.5 94 -2 -2 1031.2 1015.8
22 16.02 СВ 1 н/о н/о +0.1 -0.3 97 -2 -2 1031.1 1015.7
23 16.02 штиль 0 н/о н/о 0.0 -0.3 98 -1 -1 1031.0 1015.6
00 17.02 штиль 0 н/о н/о -1.3 -1.4 99 -3 -3 1030.5 1015.0
01 17.02 СВ 1 н/о н/о -1.6 -1.6 100 -4 -4 1030.2 1014.7
02 17.02 С 1 н/о н/о -2.3 -2.4 99 -5 -5 1029.9 1014.3
03 17.02 СВ 1 н/о н/о -2.8 -2.9 99 -5 -5 1029.7 1014.1
04 17.02 штиль 0 н/о н/о -3.4 -3.5 99 -5 -5 1029.6 1014.0
05 17.02 СВ 1 н/о н/о -3.3 -3.4 99 -6 -6 1029.7 1014.1
06 17.02 штиль 0 200 м переохл. туман ясно -3.6 -3.7 99 -5 -5 1030.0 1014.4 -3.8
07 17.02 штиль 0 н/о н/о -2.8 -2.9 99 -4 -4 1030.5 1014.9
08 17.02 штиль 0 н/о н/о +0.9 +0.8 99 -1 -1 1030.2 1014.8
09 17.02 ЮВ 1 н/о н/о +3.7 +1.1 83 +2 +2 1029.9 1014.7
10 17.02 ЮВ 1 н/о н/о +7.8 +2.1 67 +7 +7 1029.7 1014.7
11 17.02 В 1 н/о н/о +10.6 +2.9 59 +11 +11 1029.0 1014.2
12 17.02 Ю 1 н/о н/о +12.7 +2.6 50 +13 +13 1027.8 1013.1
13 17.02 ЮВ 2 н/о н/о +13.6 +1.3 43 +13 +13 1027.1 1012.4
14 17.02 ЮВ 2 н/о н/о +14.4 +2.0 43 +14 +14 1026.5 1011.9
15 17.02 ЮВ 2 н/о н/о +14.1 +1.7 43 +14 +14 1026.1 1011.5
16 17.02 СВ 1 н/о н/о +10.4 +2.3 57 +10 +10 1026.2 1011.4
17 17.02 СВ 1 н/о н/о +6.8 +1.1 67 +6 +6 1026.6 1011.6
18 17.02 штиль 0 н/о н/о +4.9 +0.7 74 +4 +4 1026.8 1011.7 +14.4
19 17.02 СВ 1 н/о н/о +2.7 +0.3 84 +1 +1 1026.9 1011.7
20 17.02 штиль 0 н/о н/о +2.1 0.0 86 +1 +1 1027.2 1011.9
21 17.02 СВ 2 н/о н/о +1.3 +0.6 95 -2 -2 1027.3 1012.0
22 17.02 СВ 1 н/о н/о -0.2 -0.9 95 -2 -2 1027.1 1011.7
23 17.02 С 1 н/о н/о -0.2 -0.3 99 -2 -2 1027.1 1011.7
00 18.02 штиль 0 н/о н/о -0.3 -0.3 100 -2 -2 1026.9 1011.5
01 18.02 штиль 0 н/о н/о -2.0 -2.1 99 -3 -3 1026.8 1011.3
02 18.02 штиль 0 н/о н/о -2.4 -2.5 99 -4 -4 1026.3 1010.8
03 18.02 штиль 0 н/о н/о -2.6 -2.7 99 -4 -4 1026.2 1010.7
04 18.02 штиль 0 н/о н/о -3.3 -3.4 99 -5 -5 1026.3 1010.7
05 18.02 штиль 0 н/о н/о -3.1 -3.2 99 -4 -4 1026.0 1010.5
06 18.02 ЮВ 1 300 м туман 1/1 300 м
[Sc]
-4.6 -4.7 99 -7 -7 1026.2 1010.6 -4.6
07 18.02 штиль 0 н/о н/о -2.6 -2.7 99 -4 -4 1026.7 1011.2
08 18.02 штиль 0 н/о н/о +1.3 +1.2 99 -0 -0 1026.4 1011.1
09 18.02 В 1 6000 м {туман} 6/0
[Ci sp]
+4.5 +1.9 83 +3 +3 1026.1 1011.0
10 18.02 ЮВ 1 н/о н/о +8.3 +2.1 65 +8 +8 1025.8 1010.9
11 18.02 ЮВ 2 н/о н/о +11.3 +1.8 52 +10 +10 1024.8 1010.1
12 18.02 ЮВ 2 10 км {туман} 8/0
[Cs]
+12.5 +0.9 45 +12 +12 1024.0 1009.3
13 18.02 ЮВ 3 н/о н/о +13.7 +1.0 42 +13 +13 1022.9 1008.3
14 18.02 ЮВ 2 н/о н/о +14.4 +0.6 39 +14 +14 1022.4 1007.8
15 18.02 СВ 2 15 км 6/0
[Cs]
+13.3 +2.2 47 +13 +13 1022.1 1007.5
16 18.02 СВ 2 н/о н/о +11.1 +0.8 49 +10 +10 1021.9 1007.2
17 18.02 В 3 н/о н/о +9.1 +0.8 56 +7 +7 1022.0 1007.2
18 18.02 СВ 1 н/о н/о +5.1 -0.1 69 +4 +4 1022.3 1007.3 +14.7
19 18.02 штиль 0 н/о н/о +3.4 +0.1 79 +3 +3 1022.2 1007.1
20 18.02 СВ 2 н/о н/о +1.9 +0.1 88 -1 -1 1022.2 1007.0
21 18.02 штиль 0 н/о н/о +1.0 -0.6 89 -0 -0 1022.1 1006.8
22 18.02 СВ 2 н/о н/о +1.4 +0.4 93 -2 -2 1021.7 1006.5
23 18.02 СВ 2 н/о н/о +0.3 -0.3 96 -3 -3 1021.6 1006.3
00 19.02 СВ 2 н/о н/о +0.8 +0.5 98 -3 -3 1021.5 1006.2
01 19.02 В 2 н/о н/о +1.9 +0.6 91 -2 -2 1021.0 1005.8
02 19.02 СВ 2 н/о н/о +0.8 +0.2 96 -3 -3 1020.5 1005.3
03 19.02 СВ 2 н/о н/о -0.4 -0.5 99 -4 -4 1020.2 1004.9
04 19.02 В 1 н/о н/о -0.2 -0.8 96 -2 -2 1020.1 1004.8
05 19.02 В 2 н/о н/о +0.6 +0.6 100 -3 -3 1020.0 1004.8
06 19.02 В 2 5000 м дымка 1/0
[Ci sp]
-0.7 -1.1 97 -5 -5 1020.3 1005.0 -1.7
07 19.02 В 1 н/о н/о +0.5 +0.2 98 -2 -2 1021.0 1005.7
08 19.02 В 1 н/о н/о +4.5 +1.7 82 +3 +3 1020.7 1005.7
09 19.02 Ю 2 н/о н/о +6.1 +2.0 75 +4 +4 1020.8 1005.8
10 19.02 В 1 н/о н/о +9.2 +2.8 64 +9 +9 1020.8 1006.0
11 19.02 СЗ 1 н/о н/о +10.1 +1.7 56 +10 +10 1020.4 1005.7
12 19.02 ЮЗ 1 н/о н/о +11.6 +1.0 48 +12 +12 1019.9 1005.2
13 19.02 СЗ 1 н/о н/о +13.1 +0.5 42 +14 +14 1019.3 1004.7
14 19.02 Ю 1 н/о н/о +13.3 +1.3 44 +14 +14 1019.2 1004.6
15 19.02 ЮЗ 1 н/о н/о +13.2 +1.5 45 +14 +14 1019.3 1004.7
16 19.02 СЗ 3 н/о н/о +10.5 +1.1 52 +9 +9 1019.4 1004.7
17 19.02 СЗ 2 н/о н/о +7.1 -0.1 60 +5 +5 1020.0 1005.1
18 19.02 З 2 н/о н/о +5.7 +0.7 70 +3 +3 1020.3 1005.3 +14.5
19 19.02 СЗ 1 н/о н/о +5.1 +0.5 72 +4 +4 1020.5 1005.5
20 19.02 СЗ 1 н/о н/о +4.1 +0.4 77 +3 +3 1020.8 1005.7
21 19.02 Ю 1 н/о н/о +2.2 +0.4 88 +1 +1 1021.0 1005.8
22 19.02 ЮЗ 2 н/о н/о +0.4 -0.9 91 -3 -3 1020.9 1005.6
23 19.02 штиль 0 н/о н/о +1.2 -0.4 89 0 0 1021.1 1005.9
00 20.02 штиль 0 н/о н/о -0.6 -1.3 95 -2 -2 1021.4 1006.1
01 20.02 Ю 1 н/о н/о -0.5 -0.8 98 -3 -3 1021.3 1006.0
02 20.02 С 1 н/о н/о -0.9 -1.5 96 -3 -3 1021.5 1006.1
03 20.02 СЗ 2 н/о н/о +0.4 -0.3 95 -3 -3 1022.0 1006.7
04 20.02 З 2 н/о н/о +1.8 +0.3 90 -2 -2 1022.1 1006.9
05 20.02 СЗ 3 н/о н/о +2.2 +0.4 88 -2 -2 1022.3 1007.1
06 20.02 СЗ 2 7000 м 9/9 2000 м
[Sc]
+2.3 +0.4 87 -1 -1 1023.0 1007.8 -1.3
07 20.02 З 3 н/о н/о +3.3 +1.0 85 -1 -1 1023.7 1008.5
08 20.02 СЗ 3 н/о н/о +6.0 +2.1 76 +3 +3 1024.0 1009.0
09 20.02 СЗ 2 16 км 9/9 2000 м
[Sc]
+7.7 +2.6 70 +6 +6 1024.4 1009.5
10 20.02 С 3 н/о н/о +9.1 +2.4 63 +7 +7 1024.6 1009.7
11 20.02 З 2 н/о н/о +9.1 +2.2 62 +8 +8 1024.6 1009.7
12 20.02 С 3 18 км 9/4 2000 м
[Sc Cs]
+11.1 +2.2 54 +10 +10 1024.1 1009.4
13 20.02 С 4 н/о н/о +11.8 +2.0 51 +10 +10 1024.0 1009.3
14 20.02 С 3
{8}
н/о н/о +11.9 +2.1 51 +11 +11 1024.1 1009.4
15 20.02 С 2 18 км 6/0
[Ci sp]
+10.8 +1.9 54 +10 +10 1024.1 1009.3
16 20.02 н/о н/о +9.1 +1.8 60 1024.3 1009.4
17 20.02 штиль 0 н/о н/о +7.1 +1.6 68 +7 +7 1024.7 1009.7
18 20.02 штиль 0 н/о н/о +6.2 +1.9 74 +5 +5 1025.4 1010.4 +12.1
19 20.02 СЗ 1 н/о н/о +4.9 +1.4 78 +4 +4 1025.9 1010.8
20 20.02 СЗ 2 н/о н/о +3.7 +0.6 80 +1 +1 1026.6 1011.4
21 20.02 З 2 н/о н/о +2.6 +1.1 90 -1 -1 1026.8 1011.6
22 20.02 СЗ 1 н/о н/о +2.0 +0.7 91 0 0 1027.1 1011.8
23 20.02 СЗ 1 н/о н/о +2.2 +1.3 94 0 0 1027.6 1012.3
00 21.02 СЗ 1 н/о н/о +0.2 -0.4 96 -2 -2 1027.8 1012.4
01 21.02 СЗ 1 н/о н/о -0.7 -1.0 98 -3 -3 1028.0 1012.6
02 21.02 СЗ 3 н/о н/о -0.9 -1.3 97 -6 -6 1028.3 1012.8
03 21.02 СЗ 1 н/о н/о -1.6 -1.7 99 -4 -4 1028.4 1012.9
04 21.02 СЗ 2 н/о н/о -1.3 -1.4 99 -5 -5 1028.8 1013.3
05 21.02 СЗ 2 н/о н/о -1.8 -1.9 99 -6 -6 1028.8 1013.3
06 21.02 З 1 15 км 9/0
[Ac lent Cs]
-2.0 -2.1 99 -4 -4 1029.0 1013.5 -2.2
07 21.02 СЗ 1 н/о н/о -0.4 -0.5 99 -3 -3 1029.4 1014.0
08 21.02 штиль 0 н/о н/о +3.5 +1.7 88 +2 +2 1029.4 1014.2
09 21.02 Ю 1 22 км 4/0
[Ci sp]
+6.3 +2.6 77 +5 +5 1029.2 1014.1
10 21.02 штиль 0 н/о н/о +10.1 +3.8 65 +10 +10 1028.8 1013.9
11 21.02 Ю 2 н/о н/о +11.6 +2.6 54 +11 +11 1028.0 1013.2
12 21.02 Ю 3 30 км 9/0
[Cs]
+12.4 +2.0 49 +11 +11 1027.2 1012.5
13 21.02 ЮЗ 3 н/о н/о +13.0 +2.3 48 +12 +12 1026.7 1012.0
14 21.02 Ю 2 н/о н/о +13.4 +2.3 47 +13 +13 1026.2 1011.5
15 21.02 Ю 2 30 км 3/0
[Ci sp]
+13.4 +2.9 49 +13 +13 1025.5 1010.9
16 21.02 ЮВ 1 н/о н/о +11.9 +2.6 53 +12 +12 1025.3 1010.6
17 21.02 ЮВ 1 н/о н/о +7.9 +2.2 67 +7 +7 1025.6 1010.7
18 21.02 штиль 0 н/о н/о +7.6 +2.1 68 +7 +7 1025.7 1010.7 +13.7
19 21.02 С 1 н/о н/о +5.6 +1.5 75 +5 +5 1025.5 1010.4
20 21.02 н/о н/о +4.7 +1.7 81 1025.6 1010.5
21 21.02 СЗ 3 н/о н/о +6.2 +3.7 84 +3 +3 1026.2 1011.2
22 21.02 ЮЗ 4 н/о н/о +5.8 +4.3 90 +2 +2 1024.9 1009.9
23 21.02 Ю 1 н/о н/о +5.6 +4.4 92 +4 +4 1024.6 1009.6
00 22.02 В 1 н/о н/о +5.5 +4.2 91 +4 +4 1024.7 1009.7 0.1
01 22.02 ЮЗ 1 н/о н/о +5.2 +4.5 95 +4 +4 1024.8 1009.7
02 22.02 З 2 н/о н/о +5.2 +4.2 93 +2 +2 1024.0 1008.9
03 22.02 З 3 н/о н/о +5.9 +4.1 88 +3 +3 1023.1 1008.1
04 22.02 С 1 н/о н/о +5.6 +3.9 89 +4 +4 1022.8 1007.8
05 22.02 З 1 н/о н/о +5.4 +4.2 92 +4 +4 1022.1 1007.1
06 22.02 СЗ 2 17 км в посл. час ливневой дождь 10/10 1380 м
[Sc]
+5.7 +4.5 92 +3 +3 1022.6 1007.6 +4.4 0.2
07 22.02 СЗ 5
{9}
н/о н/о +7.6 +5.6 87 +4 +4 1022.8 1007.9
08 22.02 СЗ 6
{10}
н/о н/о +8.3 +5.4 82 +4 +4 1022.7 1007.8
09 22.02 СЗ 8
{13}
40 км в посл. час ливневой дождь 9/8 400 м
[Cu Sc Ci sp]
+9.6 +6.1 79 +5 +5 1022.7 1007.9
10 22.02 СЗ 10
{14}
н/о н/о +10.7 +6.5 75 +7 +7 1022.8 1008.1
11 22.02 С 10
{17}
н/о н/о +10.3 +6.1 75 +6 +6 1023.2 1008.4
12 22.02 С 13
{17}
40 км {ливн. осадки, дождь} 6/5 700 м
[Cu Sc Ac lent Ci sp]
+10.5 +5.3 70 +6 +6 1022.9 1008.1 0.3
13 22.02 С 15
{21}
н/о н/о +10.6 +2.9 59 +6 +6 1023.7 1008.9
14 22.02 С 12
{20}
н/о н/о +8.9 +2.0 62 +4 +4 1025.4 1010.5
15 22.02 С 14
{21}
н/о н/о +5.9 +0.2 67 -1 -1 1027.5 1012.4
16 22.02 С 10
{19}
н/о н/о +4.3 -2.8 60 -2 -2 1029.1 1013.9
17 22.02 С 14
{22}
н/о н/о +2.8 -5.8 53 -5 -5 1030.7 1015.4

 

Местоположение метеостанции Шармеллек (Венгрия): широта 46.68 долгота 17.17 высота над уровнем моря 125 м.

В архиве по умолчанию представлена погода в Шармеллеке за последнюю неделю. Архивные данные за месяц целиком и за предыдущие месяцы, начиная с января 2011 года, Вы можете получить, выбрав интересующий диапазон дат из раскрывающегося списка и нажав кнопку "Ввод!".


*Определитесь, кто Вы:
робот инопланетянин человек

Внимание! Время в таблицах - всемирное. Для получения местного времени необходимо прибавить поправку, которая равна 1 ч.

Смотрите также архив погоды в соседних городах и на ближайших метеорологических станциях:

Погода в Надьканиже (Венгрия) (30 км)
Погода в Залаэгерсеге (Венгрия) (35 км)
Погода в Капошваре (Венгрия) (61 км)
Погода в Веспреме (Венгрия) (66 км)
Погода в Сентготтхарде (Венгрия) (70 км)
Погода в Шиофоке (Венгрия) (72 км)
Погода в Вараздине (Хорватия) (74 км)
Погода в Мурска-Соботе (Словения) (76 км)
Погода в Сомбатхее (Венгрия) (77 км)
Погода в Кляйнциккене (Австрия) (86 км)

Пояснения к столбцам:

Ветер - указаны скорость ветра в м/с - средняя за 10 мин, порывы в срок и между сроками (в фигурных скобках) и направление, откуда дует ветер: С - северный, СВ - северо-восточный, В - восточный, ЮВ - юго-восточный, Ю - южный, ЮЗ - юго-западный, З - западный, СЗ - северо-западный.
Видимость - горизонтальная дальность видимости в метрах или километрах. При видимости от 1 до 10 км при отсутствии осадков обычно наблюдается дымка, при ухудшении видимости до 1 км и менее - туман. В сухую погоду видимость может ухудшаться дымом, пылью или мглою.
Явления - указаны атмосферные явления, наблюдавшиеся в срок или в последний час перед сроком; фигурными скобками обозначены явления, наблюдавшиеся между сроками (за 1-3 часа до срока); квадратными скобками обозначены град или гололедные отложения с указанием их диаметра в мм.
Облачность - указаны через наклонную черту общая и нижняя облачность в баллах и высота нижней границы облаков в метрах; квадратными скобками обозначены формы облаков: Ci - перистые, Cs - перисто-слоистые, Cc - перисто-кучевые, Ac - высококучевые, As - высокослоистые, Sc - слоисто-кучевые, Ns - слоисто-дождевые, Cu - кучевые, Cb - кучево-дождевые. Подробнее классификацию облаков см. в Атласе облаков (PDF).
T - Температура воздуха - температура, измеренная на высоте 2 м над землей.
Td - Температура точки росы - температура, при понижении до которой содержащийся в воздухе водяной пар достигнет насыщения.
f - Относительная влажность воздуха - влажноcть воздуха, измеренная на высоте 2 м над землей.
Te - Эффективная температура - температура, которую ощущает одетый по сезону человек в тени. Характеристика душности погоды. При расчете учитывается влияние влажности воздуха и скорости ветра на теплоощущения человека.
Tes - Эффективная температура на солнце - температура, которую ощущает человек, с поправкой на солнечный нагрев. Характеристика знойности погоды. Зависит от высоты солнца над горизонтом, облачности и скорости ветра. Ночью, в пасмурную погоду, а также при ветре 12 м/с и более поправка равна нулю.
P - Атмосферное давление - приведенное к уровню моря атмосферное давление.
Po - Атмосферное давление - измеренное на уровне метеостанции атмосферное давление.
Tmin - Минимальная температура - минимум температуры воздуха на высоте 2 м над землей.
Tmax - Максимальная температура - максимум температуры воздуха на высоте 2 м над землей.
R - Количество осадков - Количество выпавших осадков за период времени, мм. При наведении курсора мыши на число - период времени, за который выпало указанное количество осадков.
R24 - Количество осадков - Количество выпавших осадков за 24 часа, мм.
S - Снежный покров - Высота снежного покрова, см. При наведении курсора мыши на число - состояние снежного покрова и степень покрытия местности в баллах.